Volver al catálogo

STARLINK-34084

ActivoComunicacionesVLEO
NORAD 63970·PAYLOAD·🇺🇸 United States

Lanzado May 13, 2025 desde Cape Canaveral Space Force Station

Loading…

Próximos Pases (próximas 24 horas)

TLE

ActualizadoSource: CelesTrak SupGP

Época: Sep 15, 2026, 03:06 UTC

1 63970C 25099U   26258.12965278 -.00026708  00000+0 -96761-3 0  2587
2 63970  43.0028 185.9373 0001357 274.9877  82.9448 15.27583239    11

Sigue STARLINK-34084 en tiempo real con AllMySat

Download on the App Store